Time,TemperatureF,DewpointF,PressureIn,WindDirection,WindDirectionDegrees,WindSpeedMPH,WindSpeedGustMPH,Humidity,HourlyPrecipIn,Conditions,Clouds,dailyrainin,SoftwareType,DateUTC
2013-04-30 00:00:00,62.2,51.2,29.91,SSE,158,8.5,8.7,67,0.00,,CLR,0.00,VWS V14.01,2013-04-30 04:00:00,
2013-04-30 00:01:00,62.2,50.8,29.91,SSE,158,7.4,8.7,66,0.00,,CLR,0.00,VWS V14.01,2013-04-30 04:01:00,
2013-04-30 00:03:00,62.2,51.2,29.91,SSE,158,8.5,8.7,67,0.00,,CLR,0.00,VWS V14.01,2013-04-30 04:03:00,
2013-04-30 00:06:00,62.2,50.8,29.91,South,180,6.0,8.5,66,0.00,,CLR,0.00,VWS V14.01,2013-04-30 04:06:00,
2013-04-30 00:07:00,62.2,50.8,29.91,South,180,6.0,8.5,66,0.00,,CLR,0.00,VWS V14.01,2013-04-30 04:07:00,
2013-04-30 00:12:00,62.2,50.8,29.91,South,180,4.0,8.5,66,0.00,,CLR,0.00,VWS V14.01,2013-04-30 04:12:00,
2013-04-30 00:16:00,62.2,50.8,29.91,South,180,4.9,8.5,66,0.00,,CLR,0.00,VWS V14.01,2013-04-30 04:16:00,
2013-04-30 00:21:00,62.2,50.8,29.91,South,180,3.8,8.5,66,0.00,,CLR,0.00,VWS V14.01,2013-04-30 04:21:00,
2013-04-30 00:26:00,62.1,51.0,29.91,SSW,202,4.9,8.5,67,0.00,,CLR,0.00,VWS V14.01,2013-04-30 04:26:00,
2013-04-30 00:31:00,62.1,51.0,29.91,South,180,4.7,8.5,67,0.00,,CLR,0.00,VWS V14.01,2013-04-30 04:31:00,
2013-04-30 00:36:00,62.1,51.0,29.88,SSW,202,5.4,8.5,67,0.00,,CLR,0.00,VWS V14.01,2013-04-30 04:36:00,
2013-04-30 00:41:00,62.1,51.0,29.88,SSW,202,3.8,8.5,67,0.00,,CLR,0.00,VWS V14.01,2013-04-30 04:41:00,
2013-04-30 00:46:00,61.9,51.2,29.88,SSW,202,4.5,8.5,68,0.00,,CLR,0.00,VWS V14.01,2013-04-30 04:46:00,
2013-04-30 00:51:00,61.9,51.2,29.91,SSW,202,4.3,8.5,68,0.00,,CLR,0.00,VWS V14.01,2013-04-30 04:51:00,
2013-04-30 00:56:00,61.7,51.4,29.91,SSW,202,5.8,8.5,69,0.00,,CLR,0.00,VWS V14.01,2013-04-30 04:56:00,
2013-04-30 01:00:00,61.5,51.3,29.91,SSW,202,7.6,8.5,69,0.00,,CLR,0.00,VWS V14.01,2013-04-30 05:00:00,
2013-04-30 01:01:00,61.7,51.4,29.91,SSW,202,4.3,8.5,69,0.00,,CLR,0.00,VWS V14.01,2013-04-30 05:01:00,
2013-04-30 01:06:00,61.5,51.3,29.91,SSW,202,4.7,7.6,69,0.00,,CLR,0.00,VWS V14.01,2013-04-30 05:06:00,
2013-04-30 01:11:00,61.5,51.3,29.91,South,180,6.0,9.4,69,0.00,,CLR,0.00,VWS V14.01,2013-04-30 05:11:00,
2013-04-30 01:16:00,61.7,51.4,29.91,South,180,6.5,9.4,69,0.00,,CLR,0.00,VWS V14.01,2013-04-30 05:16:00,
2013-04-30 01:21:00,61.5,51.3,29.91,SSW,202,5.4,9.4,69,0.00,,CLR,0.00,VWS V14.01,2013-04-30 05:21:00,
2013-04-30 01:26:00,61.3,51.5,29.91,South,180,5.4,9.4,70,0.00,,CLR,0.00,VWS V14.01,2013-04-30 05:26:00,
2013-04-30 01:31:00,61.3,51.5,29.91,SSW,202,4.3,9.4,70,0.00,,CLR,0.00,VWS V14.01,2013-04-30 05:31:00,
2013-04-30 01:36:00,61.0,51.1,29.91,South,180,4.9,9.4,70,0.00,,CLR,0.00,VWS V14.01,2013-04-30 05:36:00,
2013-04-30 01:41:00,61.0,51.5,29.91,South,180,4.0,9.4,71,0.00,,CLR,0.00,VWS V14.01,2013-04-30 05:41:00,
2013-04-30 01:46:00,60.8,51.3,29.91,South,180,4.3,9.4,71,0.00,,CLR,0.00,VWS V14.01,2013-04-30 05:46:00,
2013-04-30 01:51:00,60.8,51.3,29.91,South,180,6.0,9.4,71,0.00,,CLR,0.00,VWS V14.01,2013-04-30 05:51:00,
2013-04-30 01:56:00,60.6,51.6,29.91,South,180,5.4,9.4,72,0.00,,CLR,0.00,VWS V14.01,2013-04-30 05:56:00,
2013-04-30 02:00:00,60.4,51.4,29.91,South,180,6.0,9.4,72,0.00,,CLR,0.00,VWS V14.01,2013-04-30 06:00:00,
2013-04-30 02:01:00,60.4,51.4,29.91,SSW,202,7.2,9.4,72,0.00,,CLR,0.00,VWS V14.01,2013-04-30 06:01:00,
2013-04-30 02:06:00,60.4,51.4,29.91,SSE,158,5.6,6.5,72,0.00,,CLR,0.00,VWS V14.01,2013-04-30 06:06:00,
2013-04-30 02:11:00,60.3,51.2,29.91,South,180,5.4,7.6,72,0.00,,CLR,0.00,VWS V14.01,2013-04-30 06:11:00,
2013-04-30 02:16:00,60.1,51.4,29.91,SSW,202,3.8,7.6,73,0.00,,CLR,0.00,VWS V14.01,2013-04-30 06:16:00,
2013-04-30 02:21:00,59.7,51.1,29.91,SSW,202,2.9,7.6,73,0.00,,CLR,0.00,VWS V14.01,2013-04-30 06:21:00,
2013-04-30 02:26:00,59.5,50.9,29.91,South,180,4.0,7.6,73,0.00,,CLR,0.00,VWS V14.01,2013-04-30 06:26:00,
2013-04-30 02:31:00,59.4,51.1,29.91,SSE,158,4.3,7.6,74,0.00,,CLR,0.00,VWS V14.01,2013-04-30 06:31:00,
2013-04-30 02:36:00,59.0,51.1,29.91,SSE,158,4.3,7.6,75,0.00,,CLR,0.00,VWS V14.01,2013-04-30 06:36:00,
2013-04-30 02:41:00,58.6,51.1,29.91,SSE,158,4.9,7.6,76,0.00,,CLR,0.00,VWS V14.01,2013-04-30 06:41:00,
2013-04-30 02:46:00,58.5,51.6,29.91,SSE,158,4.9,7.6,78,0.00,,CLR,0.00,VWS V14.01,2013-04-30 06:46:00,
2013-04-30 02:51:00,58.3,51.5,29.94,SSE,158,4.9,7.6,78,0.00,,CLR,0.00,VWS V14.01,2013-04-30 06:51:00,
2013-04-30 02:56:00,58.1,51.6,29.94,SSE,158,4.9,7.6,79,0.00,,CLR,0.00,VWS V14.01,2013-04-30 06:56:00,
2013-04-30 03:00:00,58.1,52.0,29.94,SSE,158,4.9,7.6,80,0.00,,CLR,0.00,VWS V14.01,2013-04-30 07:00:00,
2013-04-30 03:01:00,58.1,52.0,29.94,SSE,158,4.9,7.6,80,0.00,,CLR,0.00,VWS V14.01,2013-04-30 07:01:00,
2013-04-30 03:06:00,58.1,52.0,29.94,SSE,158,4.9,6.0,80,0.00,,CLR,0.00,VWS V14.01,2013-04-30 07:06:00,
2013-04-30 03:11:00,57.9,51.8,29.94,SSE,158,4.7,6.0,80,0.00,,CLR,0.00,VWS V14.01,2013-04-30 07:11:00,
2013-04-30 03:16:00,57.7,52.0,29.97,South,180,4.9,6.0,81,0.00,,CLR,0.00,VWS V14.01,2013-04-30 07:16:00,
2013-04-30 03:21:00,57.7,52.0,29.97,SSE,158,4.9,6.0,81,0.00,,CLR,0.00,VWS V14.01,2013-04-30 07:21:00,
2013-04-30 03:26:00,57.7,52.3,29.97,SSE,158,5.6,6.0,82,0.00,,CLR,0.00,VWS V14.01,2013-04-30 07:26:00,
2013-04-30 03:31:00,57.9,52.5,29.97,South,180,5.4,6.3,82,0.00,,CLR,0.00,VWS V14.01,2013-04-30 07:31:00,
2013-04-30 03:36:00,57.9,52.1,29.97,South,180,5.4,6.5,81,0.00,,CLR,0.00,VWS V14.01,2013-04-30 07:36:00,
2013-04-30 03:41:00,57.9,52.1,29.97,South,180,5.8,6.5,81,0.00,,CLR,0.00,VWS V14.01,2013-04-30 07:41:00,
2013-04-30 03:46:00,58.1,52.3,29.94,South,180,4.0,7.4,81,0.00,,CLR,0.00,VWS V14.01,2013-04-30 07:46:00,
2013-04-30 03:51:00,57.9,51.8,29.94,SSW,202,6.0,7.6,80,0.00,,CLR,0.00,VWS V14.01,2013-04-30 07:51:00,
2013-04-30 03:57:00,57.9,51.8,29.94,SSW,202,6.0,7.6,80,0.00,,CLR,0.00,VWS V14.01,2013-04-30 07:57:00,
2013-04-30 04:00:00,57.9,51.8,29.97,South,180,4.9,7.6,80,0.00,,CLR,0.00,VWS V14.01,2013-04-30 08:00:00,
2013-04-30 04:02:00,57.9,51.8,29.94,South,180,5.6,7.6,80,0.00,,CLR,0.00,VWS V14.01,2013-04-30 08:02:00,
2013-04-30 04:07:00,57.7,51.6,29.97,South,180,5.8,7.6,80,0.00,,CLR,0.00,VWS V14.01,2013-04-30 08:07:00,
2013-04-30 04:12:00,57.7,52.0,29.97,SSW,202,7.6,8.5,81,0.00,,CLR,0.00,VWS V14.01,2013-04-30 08:12:00,
2013-04-30 04:17:00,57.7,51.6,29.97,SSE,158,6.5,8.5,80,0.00,,CLR,0.00,VWS V14.01,2013-04-30 08:17:00,
2013-04-30 04:22:00,57.4,51.6,29.97,SSE,158,5.8,8.5,81,0.00,,CLR,0.00,VWS V14.01,2013-04-30 08:22:00,
2013-04-30 04:27:00,57.2,51.4,29.97,SSE,158,5.6,8.5,81,0.00,,CLR,0.00,VWS V14.01,2013-04-30 08:27:00,
2013-04-30 04:32:00,57.0,51.6,29.97,South,180,5.6,8.5,82,0.00,,CLR,0.00,VWS V14.01,2013-04-30 08:32:00,
2013-04-30 04:37:00,56.8,51.7,29.97,SSE,158,6.3,8.5,83,0.00,,CLR,0.00,VWS V14.01,2013-04-30 08:37:00,
2013-04-30 04:42:00,56.8,51.7,29.97,South,180,6.3,8.5,83,0.00,,CLR,0.00,VWS V14.01,2013-04-30 08:42:00,
2013-04-30 04:47:00,56.8,51.7,29.94,SSE,158,6.7,8.5,83,0.00,,CLR,0.00,VWS V14.01,2013-04-30 08:47:00,
2013-04-30 04:52:00,56.8,51.7,29.94,SSE,158,5.6,8.5,83,0.00,,CLR,0.00,VWS V14.01,2013-04-30 08:52:00,
2013-04-30 04:57:00,56.7,51.9,29.94,SSE,158,6.5,8.5,84,0.00,,CLR,0.00,VWS V14.01,2013-04-30 08:57:00,
2013-04-30 05:00:00,56.7,51.9,29.97,SSE,158,8.5,10.1,84,0.00,,CLR,0.00,VWS V14.01,2013-04-30 09:00:00,
2013-04-30 05:02:00,56.7,51.9,29.97,SSE,158,8.1,10.1,84,0.00,,CLR,0.00,VWS V14.01,2013-04-30 09:02:00,
2013-04-30 05:07:00,56.7,51.9,29.97,South,180,10.7,11.0,84,0.00,,CLR,0.00,VWS V14.01,2013-04-30 09:07:00,
2013-04-30 05:12:00,56.7,51.9,29.97,SSE,158,6.5,11.0,84,0.00,,CLR,0.00,VWS V14.01,2013-04-30 09:12:00,
2013-04-30 05:17:00,56.5,51.7,29.94,SSE,158,8.5,11.0,84,0.00,,CLR,0.00,VWS V14.01,2013-04-30 09:17:00,
2013-04-30 05:22:00,56.5,51.7,29.94,SSE,158,8.7,11.0,84,0.00,,CLR,0.00,VWS V14.01,2013-04-30 09:22:00,
2013-04-30 05:27:00,56.7,51.9,29.94,SSE,158,8.7,11.0,84,0.00,,CLR,0.00,VWS V14.01,2013-04-30 09:27:00,
2013-04-30 05:32:00,56.7,51.9,29.94,SSE,158,9.0,12.1,84,0.00,,CLR,0.00,VWS V14.01,2013-04-30 09:32:00,
2013-04-30 05:37:00,56.5,51.7,29.94,South,180,7.4,12.1,84,0.00,,CLR,0.00,VWS V14.01,2013-04-30 09:37:00,
2013-04-30 05:42:00,56.5,51.7,29.94,SSE,158,8.1,12.1,84,0.00,,CLR,0.00,VWS V14.01,2013-04-30 09:42:00,
2013-04-30 05:47:00,56.3,51.5,29.94,SSE,158,6.3,12.1,84,0.00,,CLR,0.00,VWS V14.01,2013-04-30 09:47:00,
2013-04-30 05:52:00,56.3,51.5,29.94,South,180,8.1,12.1,84,0.00,,CLR,0.00,VWS V14.01,2013-04-30 09:52:00,
2013-04-30 05:57:00,56.3,51.2,29.94,SSE,158,6.3,12.1,83,0.00,,CLR,0.00,VWS V14.01,2013-04-30 09:57:00,
2013-04-30 06:00:00,56.3,51.2,29.94,SSE,158,7.4,12.1,83,0.00,,CLR,0.00,VWS V14.01,2013-04-30 10:00:00,
2013-04-30 06:02:00,56.3,51.2,29.94,South,180,6.3,12.1,83,0.00,,CLR,0.00,VWS V14.01,2013-04-30 10:02:00,
2013-04-30 06:07:00,56.1,51.0,29.94,South,180,6.0,8.7,83,0.00,,CLR,0.00,VWS V14.01,2013-04-30 10:07:00,
2013-04-30 06:12:00,56.1,51.0,29.94,SSE,158,7.6,8.7,83,0.00,,CLR,0.00,VWS V14.01,2013-04-30 10:12:00,
2013-04-30 06:17:00,55.9,50.9,29.91,SSE,158,10.5,10.5,83,0.00,,CLR,0.00,VWS V14.01,2013-04-30 10:17:00,
2013-04-30 06:22:00,56.1,51.0,29.91,South,180,5.8,10.5,83,0.00,,CLR,0.00,VWS V14.01,2013-04-30 10:22:00,
2013-04-30 06:27:00,55.9,50.9,29.91,South,180,5.8,10.5,83,0.00,,CLR,0.00,VWS V14.01,2013-04-30 10:27:00,
2013-04-30 06:32:00,55.8,51.0,29.94,South,180,4.9,10.5,84,0.00,,CLR,0.00,VWS V14.01,2013-04-30 10:32:00,
2013-04-30 06:37:00,55.8,51.0,29.94,SSE,158,4.3,10.5,84,0.00,,CLR,0.00,VWS V14.01,2013-04-30 10:37:00,
2013-04-30 06:42:00,55.9,51.2,29.94,SSW,202,4.7,10.5,84,0.00,,CLR,0.00,VWS V14.01,2013-04-30 10:42:00,
2013-04-30 06:47:00,56.3,51.2,29.97,South,180,4.0,10.5,83,0.00,,CLR,0.00,VWS V14.01,2013-04-30 10:47:00,
2013-04-30 06:52:00,56.5,51.4,29.97,SSE,158,5.8,10.5,83,0.00,,CLR,0.00,VWS V14.01,2013-04-30 10:52:00,
2013-04-30 06:57:00,56.8,51.1,29.97,SSE,158,7.6,10.7,81,0.00,,CLR,0.00,VWS V14.01,2013-04-30 10:57:00,
2013-04-30 07:02:00,56.8,50.7,29.94,SSE,158,8.7,10.7,80,0.00,,CLR,0.00,VWS V14.01,2013-04-30 11:02:00,
2013-04-30 07:07:00,57.2,50.8,29.94,South,180,9.8,10.7,79,0.00,,CLR,0.00,VWS V14.01,2013-04-30 11:07:00,
2013-04-30 07:12:00,57.2,50.4,29.94,South,180,9.8,10.7,78,0.00,,CLR,0.00,VWS V14.01,2013-04-30 11:12:00,
2013-04-30 07:17:00,57.6,50.4,29.97,SSE,158,10.3,10.7,77,0.00,,CLR,0.00,VWS V14.01,2013-04-30 11:17:00,
2013-04-30 07:22:00,57.9,50.4,29.97,South,180,8.5,10.7,76,0.00,,CLR,0.00,VWS V14.01,2013-04-30 11:22:00,
2013-04-30 07:28:00,58.3,50.4,29.97,South,180,7.4,10.7,75,0.00,,CLR,0.00,VWS V14.01,2013-04-30 11:28:00,
2013-04-30 07:33:00,58.5,50.2,29.97,South,180,6.0,10.7,74,0.00,,CLR,0.00,VWS V14.01,2013-04-30 11:33:00,
2013-04-30 07:38:00,58.8,50.6,29.97,SSE,158,13.0,13.0,74,0.00,,CLR,0.00,VWS V14.01,2013-04-30 11:38:00,
2013-04-30 07:43:00,58.6,50.4,29.97,South,180,11.2,13.0,74,0.00,,CLR,0.00,VWS V14.01,2013-04-30 11:43:00,
2013-04-30 07:48:00,58.3,50.0,29.97,SSW,202,7.6,14.1,74,0.00,,CLR,0.00,VWS V14.01,2013-04-30 11:48:00,
2013-04-30 07:53:00,58.3,50.0,29.97,SSW,202,6.0,14.1,74,0.00,,CLR,0.00,VWS V14.01,2013-04-30 11:53:00,
2013-04-30 07:58:00,58.5,50.2,29.97,SSW,202,7.4,14.1,74,0.00,,CLR,0.00,VWS V14.01,2013-04-30 11:58:00,
2013-04-30 08:00:00,58.6,50.4,29.97,SSW,202,8.5,14.1,74,0.00,,CLR,0.00,VWS V14.01,2013-04-30 12:00:00,
2013-04-30 08:03:00,58.6,50.4,29.97,SSW,202,6.5,14.1,74,0.00,,CLR,0.00,VWS V14.01,2013-04-30 12:03:00,
2013-04-30 08:08:00,59.0,50.4,29.97,South,180,6.5,9.4,73,0.00,,CLR,0.00,VWS V14.01,2013-04-30 12:08:00,
2013-04-30 08:13:00,59.2,50.5,29.97,SSW,202,5.8,9.4,73,0.00,,CLR,0.00,VWS V14.01,2013-04-30 12:13:00,
2013-04-30 08:18:00,59.2,50.2,30.00,SW,225,6.0,9.4,72,0.00,,CLR,0.00,VWS V14.01,2013-04-30 12:18:00,
2013-04-30 08:19:00,59.4,50.7,30.00,SSW,202,3.8,3.8,73,0.00,,CLR,0.00,VWS V14.01,2013-04-30 12:19:00,
2013-04-30 08:29:00,59.4,50.3,30.00,SSW,202,6.3,6.3,72,0.00,,CLR,0.00,VWS V14.01,2013-04-30 12:29:00,
2013-04-30 08:34:00,59.4,50.3,30.03,SW,225,9.8,9.8,72,0.00,,CLR,0.00,VWS V14.01,2013-04-30 12:34:00,
2013-04-30 08:39:00,59.5,50.1,30.03,SW,225,11.0,11.0,71,0.00,,CLR,0.00,VWS V14.01,2013-04-30 12:39:00,
2013-04-30 08:44:00,59.7,50.7,30.03,SW,225,7.4,11.0,72,0.00,,CLR,0.00,VWS V14.01,2013-04-30 12:44:00,
2013-04-30 08:49:00,60.4,50.6,30.03,SSW,202,6.5,11.0,70,0.00,,CLR,0.00,VWS V14.01,2013-04-30 12:49:00,
2013-04-30 08:54:00,61.2,51.3,30.03,SW,225,5.4,11.0,70,0.00,,CLR,0.00,VWS V14.01,2013-04-30 12:54:00,
2013-04-30 08:59:00,61.5,50.5,30.03,SSW,202,6.0,11.0,67,0.00,,CLR,0.00,VWS V14.01,2013-04-30 12:59:00,
2013-04-30 09:00:00,61.3,50.3,30.03,South,180,9.8,11.0,67,0.00,,CLR,0.00,VWS V14.01,2013-04-30 13:00:00,
2013-04-30 09:04:00,61.0,50.0,30.03,South,180,9.8,9.8,67,0.00,,CLR,0.00,VWS V14.01,2013-04-30 13:04:00,
2013-04-30 09:09:00,60.8,50.2,30.03,SSW,202,7.2,9.8,68,0.00,,CLR,0.00,VWS V14.01,2013-04-30 13:09:00,
2013-04-30 09:14:00,60.3,49.7,30.03,South,180,10.7,12.8,68,0.00,,CLR,0.00,VWS V14.01,2013-04-30 13:14:00,
2013-04-30 09:19:00,59.9,50.5,30.03,South,180,7.8,12.8,71,0.00,,CLR,0.00,VWS V14.01,2013-04-30 13:19:00,
2013-04-30 09:24:00,59.2,50.9,30.03,South,180,8.7,12.8,74,0.00,,CLR,0.00,VWS V14.01,2013-04-30 13:24:00,
2013-04-30 09:30:00,58.8,50.9,30.03,South,180,9.8,12.8,75,0.00,,CLR,0.00,VWS V14.01,2013-04-30 13:30:00,
2013-04-30 09:36:00,58.5,51.3,30.00,South,180,10.5,12.8,77,0.00,,CLR,0.00,VWS V14.01,2013-04-30 13:36:00,
2013-04-30 09:41:00,58.1,51.6,30.00,South,180,7.8,12.8,79,0.00,,CLR,0.00,VWS V14.01,2013-04-30 13:41:00,
2013-04-30 09:46:00,57.9,51.8,30.00,SSE,158,10.7,12.8,80,0.00,,CLR,0.00,VWS V14.01,2013-04-30 13:46:00,
2013-04-30 09:51:00,57.7,52.0,30.00,South,180,7.6,12.8,81,0.04,,CLR,0.04,VWS V14.01,2013-04-30 13:51:00,
2013-04-30 09:56:00,57.6,51.8,30.00,SSW,202,5.4,12.8,81,0.04,,CLR,0.04,VWS V14.01,2013-04-30 13:56:00,
2013-04-30 10:01:00,57.4,51.9,30.00,South,180,5.4,12.8,82,0.04,,CLR,0.04,VWS V14.01,2013-04-30 14:01:00,
2013-04-30 10:06:00,57.4,52.3,30.03,SSW,202,5.8,12.8,83,0.04,,CLR,0.04,VWS V14.01,2013-04-30 14:06:00,
2013-04-30 10:11:00,57.2,52.4,30.03,SW,225,6.0,12.8,84,0.04,,CLR,0.04,VWS V14.01,2013-04-30 14:11:00,
2013-04-30 10:16:00,57.2,52.4,30.03,SSE,158,13.0,13.0,84,0.04,,CLR,0.04,VWS V14.01,2013-04-30 14:16:00,
2013-04-30 10:21:00,57.0,52.9,30.03,SSW,202,5.8,13.0,86,0.04,,CLR,0.04,VWS V14.01,2013-04-30 14:21:00,
2013-04-30 10:26:00,56.8,53.0,30.03,South,180,5.4,13.0,87,0.04,,CLR,0.04,VWS V14.01,2013-04-30 14:26:00,
2013-04-30 10:31:00,56.8,53.3,30.03,South,180,6.3,13.0,88,0.08,,CLR,0.08,VWS V14.01,2013-04-30 14:31:00,
2013-04-30 10:36:00,56.7,53.5,30.03,South,180,8.7,13.0,89,0.08,,CLR,0.08,VWS V14.01,2013-04-30 14:36:00,
2013-04-30 10:41:00,56.7,53.8,30.03,SSE,158,8.7,13.0,90,0.12,,CLR,0.12,VWS V14.01,2013-04-30 14:41:00,
2013-04-30 10:46:00,56.7,54.4,30.03,SE,135,12.5,13.0,92,0.12,,CLR,0.12,VWS V14.01,2013-04-30 14:46:00,
2013-04-30 10:51:00,56.5,54.2,30.00,SSE,158,10.7,13.0,92,0.17,,CLR,0.17,VWS V14.01,2013-04-30 14:51:00,
2013-04-30 10:56:00,56.5,54.2,30.00,SE,135,5.6,13.0,92,0.17,,CLR,0.17,VWS V14.01,2013-04-30 14:56:00,
2013-04-30 11:00:00,56.5,54.5,30.06,SSW,202,3.8,13.0,93,0.17,,CLR,0.17,VWS V14.01,2013-04-30 15:00:00,
2013-04-30 11:01:00,56.5,54.5,30.00,SW,225,3.4,13.0,93,0.17,,CLR,0.17,VWS V14.01,2013-04-30 15:01:00,
2013-04-30 11:06:00,56.5,54.5,30.06,SW,225,5.8,5.8,93,0.04,,CLR,0.21,VWS V14.01,2013-04-30 15:06:00,
2013-04-30 11:11:00,56.3,54.6,30.06,West,270,1.6,6.3,94,0.04,,CLR,0.21,VWS V14.01,2013-04-30 15:11:00,
2013-04-30 11:16:00,56.3,54.3,30.06,WNW,292,2.0,6.3,93,0.08,,CLR,0.25,VWS V14.01,2013-04-30 15:16:00,
2013-04-30 11:21:00,56.1,54.1,30.06,SE,135,5.4,6.3,93,0.08,,CLR,0.25,VWS V14.01,2013-04-30 15:21:00,
2013-04-30 11:26:00,56.3,54.6,30.06,SE,135,11.0,14.3,94,0.12,,CLR,0.29,VWS V14.01,2013-04-30 15:26:00,
2013-04-30 11:31:00,56.3,55.2,29.97,SSE,158,17.7,17.9,96,0.12,,CLR,0.29,VWS V14.01,2013-04-30 15:31:00,
2013-04-30 11:36:00,56.5,55.4,29.97,SSE,158,16.6,19.9,96,0.12,,CLR,0.29,VWS V14.01,2013-04-30 15:36:00,
2013-04-30 11:41:00,56.7,55.0,29.97,SSE,158,17.5,21.9,94,0.12,,CLR,0.29,VWS V14.01,2013-04-30 15:41:00,
2013-04-30 11:46:00,57.2,54.3,29.97,SSE,158,15.7,28.9,90,0.16,,CLR,0.33,VWS V14.01,2013-04-30 15:46:00,
2013-04-30 11:52:00,57.6,54.0,29.97,South,180,22.4,28.9,88,0.16,,CLR,0.33,VWS V14.01,2013-04-30 15:52:00,
2013-04-30 11:57:00,57.9,54.1,29.97,South,180,14.5,28.9,87,0.16,,CLR,0.33,VWS V14.01,2013-04-30 15:57:00,
2013-04-30 12:00:00,58.3,53.8,29.97,SSE,158,13.0,28.9,85,0.16,,CLR,0.33,VWS V14.01,2013-04-30 16:00:00,
2013-04-30 12:02:00,58.3,53.8,29.97,SSE,158,16.6,28.9,85,0.16,,CLR,0.33,VWS V14.01,2013-04-30 16:02:00,
2013-04-30 12:07:00,58.5,53.7,29.97,SSE,158,15.4,17.5,84,0.16,,CLR,0.33,VWS V14.01,2013-04-30 16:07:00,
2013-04-30 12:12:00,58.6,53.8,29.97,South,180,17.5,17.9,84,0.16,,CLR,0.33,VWS V14.01,2013-04-30 16:12:00,
2013-04-30 12:17:00,58.8,53.0,30.00,SSE,158,17.5,20.4,81,0.16,,CLR,0.33,VWS V14.01,2013-04-30 16:17:00,
2013-04-30 12:22:00,59.2,53.4,30.00,SSE,158,15.7,20.4,81,0.16,,CLR,0.33,VWS V14.01,2013-04-30 16:22:00,
2013-04-30 12:27:00,59.4,53.2,30.00,SE,135,8.7,20.4,80,0.16,,CLR,0.33,VWS V14.01,2013-04-30 16:27:00,
2013-04-30 12:32:00,59.7,52.5,29.97,SSE,158,13.0,20.4,77,0.16,,CLR,0.33,VWS V14.01,2013-04-30 16:32:00,
2013-04-30 12:37:00,60.1,52.5,29.97,SSE,158,15.4,20.4,76,0.16,,CLR,0.33,VWS V14.01,2013-04-30 16:37:00,
2013-04-30 12:42:00,60.4,53.2,29.97,SE,135,10.5,20.4,77,0.16,,CLR,0.33,VWS V14.01,2013-04-30 16:42:00,
2013-04-30 12:47:00,60.6,53.0,30.00,SSE,158,17.5,20.4,76,0.16,,CLR,0.33,VWS V14.01,2013-04-30 16:47:00,
2013-04-30 12:52:00,61.0,52.7,30.00,South,180,15.4,20.4,74,0.16,,CLR,0.33,VWS V14.01,2013-04-30 16:52:00,
2013-04-30 12:57:00,61.3,52.2,30.00,South,180,10.7,22.4,72,0.16,,CLR,0.33,VWS V14.01,2013-04-30 16:57:00,
2013-04-30 13:00:00,61.9,52.8,30.00,South,180,10.3,22.4,72,0.16,,CLR,0.33,VWS V14.01,2013-04-30 17:00:00,
2013-04-30 13:02:00,61.7,52.6,30.00,South,180,8.7,22.4,72,0.16,,CLR,0.33,VWS V14.01,2013-04-30 17:02:00,
2013-04-30 13:07:00,62.1,52.2,30.00,SSE,158,14.5,16.6,70,0.00,,CLR,0.33,VWS V14.01,2013-04-30 17:07:00,
2013-04-30 13:12:00,62.6,53.5,30.00,South,180,17.5,17.5,72,0.00,,CLR,0.33,VWS V14.01,2013-04-30 17:12:00,
2013-04-30 13:17:00,62.8,52.5,30.00,SSW,202,10.3,19.9,69,0.00,,CLR,0.33,VWS V14.01,2013-04-30 17:17:00,
2013-04-30 13:22:00,63.3,53.4,30.00,SSE,158,10.1,19.9,70,0.00,,CLR,0.33,VWS V14.01,2013-04-30 17:22:00,
2013-04-30 13:27:00,63.5,53.9,30.00,South,180,12.1,19.9,71,0.00,,CLR,0.33,VWS V14.01,2013-04-30 17:27:00,
2013-04-30 13:32:00,63.5,52.8,30.00,South,180,17.0,19.9,68,0.00,,CLR,0.33,VWS V14.01,2013-04-30 17:32:00,
2013-04-30 13:37:00,63.7,53.3,30.00,South,180,14.5,19.9,69,0.00,,CLR,0.33,VWS V14.01,2013-04-30 17:37:00,
2013-04-30 13:42:00,64.0,53.7,30.00,SSE,158,12.1,20.6,69,0.00,,CLR,0.33,VWS V14.01,2013-04-30 17:42:00,
2013-04-30 13:47:00,64.6,54.2,30.00,South,180,12.1,20.6,69,0.00,,CLR,0.33,VWS V14.01,2013-04-30 17:47:00,
2013-04-30 13:52:00,64.9,54.1,30.00,SSE,158,12.1,20.6,68,0.00,,CLR,0.33,VWS V14.01,2013-04-30 17:52:00,
2013-04-30 13:57:00,65.3,54.1,30.00,South,180,10.7,20.6,67,0.00,,CLR,0.33,VWS V14.01,2013-04-30 17:57:00,
2013-04-30 14:00:00,65.1,53.1,29.97,SSE,158,20.4,20.6,65,0.00,,CLR,0.33,VWS V14.01,2013-04-30 18:00:00,
2013-04-30 14:02:00,65.1,52.7,29.97,SSE,158,17.5,20.6,64,0.00,,CLR,0.33,VWS V14.01,2013-04-30 18:02:00,
2013-04-30 14:07:00,65.1,52.7,29.97,South,180,14.8,23.7,64,0.00,,CLR,0.33,VWS V14.01,2013-04-30 18:07:00,
2013-04-30 14:12:00,65.8,53.8,29.97,SSE,158,16.1,23.7,65,0.00,,CLR,0.33,VWS V14.01,2013-04-30 18:12:00,
2013-04-30 14:17:00,66.2,52.8,29.97,SSE,158,17.7,23.7,62,0.00,,CLR,0.33,VWS V14.01,2013-04-30 18:17:00,
2013-04-30 14:22:00,66.4,53.0,29.97,SSE,158,12.8,23.7,62,0.00,,CLR,0.33,VWS V14.01,2013-04-30 18:22:00,
2013-04-30 14:27:00,66.9,53.5,29.97,SSE,158,18.1,23.7,62,0.00,,CLR,0.33,VWS V14.01,2013-04-30 18:27:00,
2013-04-30 14:32:00,67.5,54.0,29.97,SSE,158,13.2,23.7,62,0.00,,CLR,0.33,VWS V14.01,2013-04-30 18:32:00,
2013-04-30 14:38:00,68.0,53.2,29.97,SSE,158,18.6,23.7,59,0.00,,CLR,0.33,VWS V14.01,2013-04-30 18:38:00,
2013-04-30 14:43:00,67.6,54.2,29.97,South,180,23.0,23.7,62,0.00,,CLR,0.33,VWS V14.01,2013-04-30 18:43:00,
2013-04-30 14:48:00,66.6,51.3,29.97,South,180,18.6,23.7,58,0.00,,CLR,0.33,VWS V14.01,2013-04-30 18:48:00,
2013-04-30 14:53:00,66.7,52.0,29.97,South,180,19.0,23.7,59,0.00,,CLR,0.33,VWS V14.01,2013-04-30 18:53:00,
2013-04-30 14:58:00,66.7,52.4,29.97,SSE,158,19.7,23.7,60,0.00,,CLR,0.33,VWS V14.01,2013-04-30 18:58:00,
2013-04-30 15:00:00,67.1,53.7,29.97,SSE,158,11.0,23.7,62,0.00,,CLR,0.33,VWS V14.01,2013-04-30 19:00:00,
2013-04-30 15:03:00,66.9,53.0,29.97,South,180,13.2,23.7,61,0.00,,CLR,0.33,VWS V14.01,2013-04-30 19:03:00,
2013-04-30 15:08:00,68.0,51.2,29.94,South,180,19.9,23.9,55,0.00,,CLR,0.33,VWS V14.01,2013-04-30 19:08:00,
2013-04-30 15:13:00,68.9,52.6,29.94,South,180,17.7,23.9,56,0.00,,CLR,0.33,VWS V14.01,2013-04-30 19:13:00,
2013-04-30 15:18:00,69.8,53.4,29.94,SSE,158,16.6,23.9,56,0.00,,CLR,0.33,VWS V14.01,2013-04-30 19:18:00,
2013-04-30 15:23:00,70.2,50.7,29.94,South,180,22.4,23.9,50,0.00,,CLR,0.33,VWS V14.01,2013-04-30 19:23:00,
2013-04-30 15:28:00,70.2,50.1,29.94,SE,135,17.2,25.1,49,0.00,,CLR,0.33,VWS V14.01,2013-04-30 19:28:00,
2013-04-30 15:33:00,70.7,50.6,29.94,South,180,23.0,25.1,49,0.00,,CLR,0.33,VWS V14.01,2013-04-30 19:33:00,
2013-04-30 15:38:00,70.7,50.6,29.94,SSE,158,21.9,25.1,49,0.00,,CLR,0.33,VWS V14.01,2013-04-30 19:38:00,
2013-04-30 15:43:00,70.9,51.3,29.94,South,180,23.5,27.7,50,0.00,,CLR,0.33,VWS V14.01,2013-04-30 19:43:00,
2013-04-30 15:48:00,70.9,49.7,29.91,South,180,17.7,27.7,47,0.00,,CLR,0.33,VWS V14.01,2013-04-30 19:48:00,
2013-04-30 15:53:00,70.7,48.3,29.91,SSW,202,20.6,28.9,45,0.00,,CLR,0.33,VWS V14.01,2013-04-30 19:53:00,
2013-04-30 15:58:00,71.2,50.0,29.91,SSE,158,26.4,30.9,47,0.00,,CLR,0.33,VWS V14.01,2013-04-30 19:58:00,
2013-04-30 16:00:00,71.4,50.2,29.91,SSE,158,19.5,30.9,47,0.00,,CLR,0.33,VWS V14.01,2013-04-30 20:00:00,
2013-04-30 16:04:00,71.4,50.2,29.91,SSE,158,19.5,19.9,47,0.00,,CLR,0.33,VWS V14.01,2013-04-30 20:04:00,
2013-04-30 16:10:00,72.0,48.9,29.91,South,180,21.9,23.7,44,0.00,,CLR,0.33,VWS V14.01,2013-04-30 20:10:00,
2013-04-30 16:15:00,72.7,50.7,29.91,SSW,202,16.8,23.7,46,0.00,,CLR,0.33,VWS V14.01,2013-04-30 20:15:00,
2013-04-30 16:21:00,72.3,48.6,29.91,SSW,202,20.4,25.7,43,0.00,,CLR,0.33,VWS V14.01,2013-04-30 20:21:00,
2013-04-30 16:27:00,72.3,48.0,29.91,SSW,202,18.6,25.7,42,0.00,,CLR,0.33,VWS V14.01,2013-04-30 20:27:00,
2013-04-30 16:34:00,72.5,49.4,29.91,South,180,22.4,27.1,44,0.00,,CLR,0.33,VWS V14.01,2013-04-30 20:34:00,
2013-04-30 16:39:00,72.7,49.5,29.91,South,180,17.2,27.7,44,0.00,,CLR,0.33,VWS V14.01,2013-04-30 20:39:00,
2013-04-30 16:45:00,73.0,49.2,29.91,SSE,158,25.5,27.7,43,0.00,,CLR,0.33,VWS V14.01,2013-04-30 20:45:00,
2013-04-30 16:51:00,72.9,48.5,29.91,South,180,18.1,27.7,42,0.00,,CLR,0.33,VWS V14.01,2013-04-30 20:51:00,
2013-04-30 16:56:00,73.0,49.2,29.91,SSE,158,22.4,28.6,43,0.00,,CLR,0.33,VWS V14.01,2013-04-30 20:56:00,
2013-04-30 17:00:00,73.6,49.1,29.91,South,180,25.1,28.6,42,0.00,,CLR,0.33,VWS V14.01,2013-04-30 21:00:00,
2013-04-30 17:01:00,73.2,49.4,29.91,SSE,158,15.4,28.6,43,0.00,,CLR,0.33,VWS V14.01,2013-04-30 21:01:00,
2013-04-30 17:06:00,73.4,49.6,29.91,South,180,17.9,25.1,43,0.00,,CLR,0.33,VWS V14.01,2013-04-30 21:06:00,
2013-04-30 17:11:00,73.6,49.1,29.91,South,180,14.8,25.3,42,0.00,,CLR,0.33,VWS V14.01,2013-04-30 21:11:00,
2013-04-30 17:17:00,73.8,49.9,29.91,SSW,202,16.1,25.3,43,0.00,,CLR,0.33,VWS V14.01,2013-04-30 21:17:00,
2013-04-30 17:22:00,73.9,50.1,29.91,SSE,158,18.6,25.3,43,0.00,,CLR,0.33,VWS V14.01,2013-04-30 21:22:00,
2013-04-30 17:27:00,74.1,49.6,29.91,South,180,15.4,25.3,42,0.00,,CLR,0.33,VWS V14.01,2013-04-30 21:27:00,
2013-04-30 17:32:00,74.1,49.6,29.88,SSE,158,15.4,25.3,42,0.00,,CLR,0.33,VWS V14.01,2013-04-30 21:32:00,
2013-04-30 17:37:00,74.3,49.8,29.88,SE,135,19.7,25.3,42,0.00,,CLR,0.33,VWS V14.01,2013-04-30 21:37:00,
2013-04-30 17:42:00,74.1,49.6,29.88,SSE,158,23.5,25.3,42,0.00,,CLR,0.33,VWS V14.01,2013-04-30 21:42:00,
2013-04-30 17:48:00,74.1,48.9,29.88,South,180,15.2,26.4,41,0.00,,CLR,0.33,VWS V14.01,2013-04-30 21:48:00,
2013-04-30 17:53:00,74.7,50.7,29.88,SSE,158,14.5,26.4,43,0.00,,CLR,0.33,VWS V14.01,2013-04-30 21:53:00,
2013-04-30 17:58:00,74.3,49.8,29.88,South,180,13.6,26.9,42,0.00,,CLR,0.33,VWS V14.01,2013-04-30 21:58:00,
2013-04-30 18:00:00,74.1,47.6,29.88,SSW,202,15.4,26.9,39,0.00,,CLR,0.33,VWS V14.01,2013-04-30 22:00:00,
2013-04-30 18:03:00,74.1,47.6,29.88,SSW,202,15.4,26.9,39,0.00,,CLR,0.33,VWS V14.01,2013-04-30 22:03:00,
2013-04-30 18:08:00,74.3,49.1,29.88,SSW,202,11.0,22.2,41,0.00,,CLR,0.33,VWS V14.01,2013-04-30 22:08:00,
2013-04-30 18:13:00,74.1,48.3,29.88,SSW,202,11.9,23.9,40,0.00,,CLR,0.33,VWS V14.01,2013-04-30 22:13:00,
2013-04-30 18:18:00,74.3,49.8,29.91,SSE,158,16.1,23.9,42,0.00,,CLR,0.33,VWS V14.01,2013-04-30 22:18:00,
2013-04-30 18:23:00,74.1,49.6,29.91,SSW,202,15.4,23.9,42,0.00,,CLR,0.33,VWS V14.01,2013-04-30 22:23:00,
2013-04-30 18:28:00,74.1,48.9,29.91,SSW,202,10.3,23.9,41,0.00,,CLR,0.33,VWS V14.01,2013-04-30 22:28:00,
2013-04-30 18:33:00,73.9,48.8,29.91,SSE,158,13.6,23.9,41,0.00,,CLR,0.33,VWS V14.01,2013-04-30 22:33:00,
2013-04-30 18:38:00,73.9,48.8,29.91,SSE,158,12.8,23.9,41,0.00,,CLR,0.33,VWS V14.01,2013-04-30 22:38:00,
2013-04-30 18:43:00,73.9,49.4,29.91,South,180,16.8,23.9,42,0.00,,CLR,0.33,VWS V14.01,2013-04-30 22:43:00,
2013-04-30 18:48:00,73.8,49.9,29.91,SSW,202,13.2,26.0,43,0.00,,CLR,0.33,VWS V14.01,2013-04-30 22:48:00,
2013-04-30 18:53:00,73.6,49.1,29.91,South,180,19.9,26.0,42,0.00,,CLR,0.33,VWS V14.01,2013-04-30 22:53:00,
2013-04-30 18:58:00,73.4,48.9,29.91,SSE,158,13.6,26.0,42,0.00,,CLR,0.33,VWS V14.01,2013-04-30 22:58:00,
2013-04-30 19:00:00,72.9,49.1,29.91,South,180,13.2,26.0,43,0.00,,CLR,0.33,VWS V14.01,2013-04-30 23:00:00,
2013-04-30 19:03:00,73.0,49.9,29.91,SSW,202,12.8,17.0,44,0.00,,CLR,0.33,VWS V14.01,2013-04-30 23:03:00,
2013-04-30 19:08:00,72.5,50.0,29.91,South,180,14.8,17.0,45,0.00,,CLR,0.33,VWS V14.01,2013-04-30 23:08:00,
2013-04-30 19:13:00,72.3,49.8,29.91,South,180,10.5,17.0,45,0.00,,CLR,0.33,VWS V14.01,2013-04-30 23:13:00,
2013-04-30 19:18:00,72.1,49.7,29.91,SSE,158,12.8,20.6,45,0.00,,CLR,0.33,VWS V14.01,2013-04-30 23:18:00,
2013-04-30 19:23:00,72.0,50.1,29.91,South,180,13.9,20.6,46,0.00,,CLR,0.33,VWS V14.01,2013-04-30 23:23:00,
2013-04-30 19:28:00,71.6,49.2,29.91,South,180,14.8,23.9,45,0.00,,CLR,0.33,VWS V14.01,2013-04-30 23:28:00,
2013-04-30 19:33:00,71.6,49.8,29.88,South,180,11.0,23.9,46,0.00,,CLR,0.33,VWS V14.01,2013-04-30 23:33:00,
2013-04-30 19:38:00,71.1,50.4,29.88,South,180,7.4,23.9,48,0.00,,CLR,0.33,VWS V14.01,2013-04-30 23:38:00,
2013-04-30 19:44:00,70.9,49.7,29.88,SSW,202,12.3,23.9,47,0.00,,CLR,0.33,VWS V14.01,2013-04-30 23:44:00,
2013-04-30 19:49:00,70.5,49.9,29.91,South,180,12.8,23.9,48,0.00,,CLR,0.33,VWS V14.01,2013-04-30 23:49:00,
2013-04-30 19:54:00,70.5,49.9,29.91,South,180,15.2,23.9,48,0.00,,CLR,0.33,VWS V14.01,2013-04-30 23:54:00,
2013-04-30 19:59:00,70.3,49.7,29.91,SSW,202,8.1,23.9,48,0.00,,CLR,0.33,VWS V14.01,2013-04-30 23:59:00,
2013-04-30 20:00:00,70.3,49.7,29.91,SSE,158,10.7,23.9,48,0.00,,CLR,0.33,VWS V14.01,2013-05-01 00:00:00,
2013-04-30 20:04:00,70.2,49.6,29.91,South,180,12.3,14.8,48,0.00,,CLR,0.33,VWS V14.01,2013-05-01 00:04:00,
2013-04-30 20:09:00,69.8,49.2,29.91,South,180,12.1,15.9,48,0.00,,CLR,0.33,VWS V14.01,2013-05-01 00:09:00,
2013-04-30 20:14:00,69.8,49.2,29.91,South,180,10.1,15.9,48,0.00,,CLR,0.33,VWS V14.01,2013-05-01 00:14:00,
2013-04-30 20:19:00,69.4,49.5,29.91,SSE,158,11.9,15.9,49,0.00,,CLR,0.33,VWS V14.01,2013-05-01 00:19:00,
2013-04-30 20:24:00,69.3,49.3,29.91,South,180,9.2,15.9,49,0.00,,CLR,0.33,VWS V14.01,2013-05-01 00:24:00,
2013-04-30 20:29:00,69.1,49.7,29.91,SSW,202,12.5,15.9,50,0.00,,CLR,0.33,VWS V14.01,2013-05-01 00:29:00,
2013-04-30 20:34:00,68.9,49.0,29.91,South,180,13.0,15.9,49,0.00,,CLR,0.33,VWS V14.01,2013-05-01 00:34:00,
2013-04-30 20:39:00,68.7,49.9,29.91,South,180,6.5,15.9,51,0.00,,CLR,0.33,VWS V14.01,2013-05-01 00:39:00,
2013-04-30 20:44:00,68.4,49.5,29.91,SSE,158,10.7,15.9,51,0.00,,CLR,0.33,VWS V14.01,2013-05-01 00:44:00,
2013-04-30 20:50:00,68.4,49.5,29.94,South,180,9.4,15.9,51,0.00,,CLR,0.33,VWS V14.01,2013-05-01 00:50:00,
2013-04-30 20:56:00,68.2,49.4,29.94,South,180,11.0,15.9,51,0.00,,CLR,0.33,VWS V14.01,2013-05-01 00:56:00,
2013-04-30 21:00:00,67.8,50.1,29.94,South,180,7.2,15.9,53,0.00,,CLR,0.33,VWS V14.01,2013-05-01 01:00:00,
2013-04-30 21:01:00,67.8,49.6,29.94,South,180,9.6,15.9,52,0.00,,CLR,0.33,VWS V14.01,2013-05-01 01:01:00,
2013-04-30 21:06:00,67.6,49.9,29.94,South,180,8.5,11.4,53,0.00,,CLR,0.33,VWS V14.01,2013-05-01 01:06:00,
2013-04-30 21:11:00,67.6,50.4,29.94,South,180,9.0,13.9,54,0.00,,CLR,0.33,VWS V14.01,2013-05-01 01:11:00,
2013-04-30 21:16:00,67.5,50.2,29.94,South,180,8.5,13.9,54,0.00,,CLR,0.33,VWS V14.01,2013-05-01 01:16:00,
2013-04-30 21:21:00,67.1,50.4,29.97,South,180,10.5,13.9,55,0.00,,CLR,0.33,VWS V14.01,2013-05-01 01:21:00,
2013-04-30 21:26:00,67.1,49.9,29.97,South,180,8.1,13.9,54,0.00,,CLR,0.33,VWS V14.01,2013-05-01 01:26:00,
2013-04-30 21:31:00,67.1,50.4,29.97,SSE,158,6.9,13.9,55,0.00,,CLR,0.33,VWS V14.01,2013-05-01 01:31:00,
2013-04-30 21:36:00,66.7,50.6,29.97,South,180,8.5,13.9,56,0.00,,CLR,0.33,VWS V14.01,2013-05-01 01:36:00,
2013-04-30 21:41:00,66.6,50.4,29.97,SSE,158,10.5,13.9,56,0.00,,CLR,0.33,VWS V14.01,2013-05-01 01:41:00,
2013-04-30 21:46:00,66.6,50.4,29.97,South,180,7.8,13.9,56,0.00,,CLR,0.33,VWS V14.01,2013-05-01 01:46:00,
2013-04-30 21:51:00,66.4,50.2,29.94,South,180,8.5,13.9,56,0.00,,CLR,0.33,VWS V14.01,2013-05-01 01:51:00,
2013-04-30 21:56:00,65.8,50.7,29.94,SSE,158,7.8,13.9,58,0.00,,CLR,0.33,VWS V14.01,2013-05-01 01:56:00,
2013-04-30 22:00:00,65.8,51.1,29.97,South,180,8.1,13.9,59,0.00,,CLR,0.33,VWS V14.01,2013-05-01 02:00:00,
2013-04-30 22:01:00,65.8,51.1,29.94,South,180,8.7,13.9,59,0.00,,CLR,0.33,VWS V14.01,2013-05-01 02:01:00,
2013-04-30 22:06:00,65.8,50.7,29.97,South,180,9.0,12.1,58,0.00,,CLR,0.33,VWS V14.01,2013-05-01 02:06:00,
2013-04-30 22:11:00,65.7,51.0,29.97,South,180,7.4,12.1,59,0.00,,CLR,0.33,VWS V14.01,2013-05-01 02:11:00,
2013-04-30 22:16:00,65.5,50.8,29.97,South,180,10.7,13.6,59,0.00,,CLR,0.33,VWS V14.01,2013-05-01 02:16:00,
2013-04-30 22:21:00,65.5,50.8,29.97,SSE,158,9.8,13.6,59,0.00,,CLR,0.33,VWS V14.01,2013-05-01 02:21:00,
2013-04-30 22:26:00,65.5,50.8,29.97,South,180,8.1,13.6,59,0.00,,CLR,0.33,VWS V14.01,2013-05-01 02:26:00,
2013-04-30 22:31:00,65.1,50.9,29.97,SSE,158,12.3,13.6,60,0.00,,CLR,0.33,VWS V14.01,2013-05-01 02:31:00,
2013-04-30 22:36:00,64.9,51.2,29.97,South,180,10.3,13.6,61,0.00,,CLR,0.33,VWS V14.01,2013-05-01 02:36:00,
2013-04-30 22:41:00,64.8,51.0,29.97,SSE,158,13.2,13.6,61,0.00,,CLR,0.33,VWS V14.01,2013-05-01 02:41:00,
2013-04-30 22:46:00,64.8,51.0,29.97,SSE,158,9.2,13.6,61,0.00,,CLR,0.33,VWS V14.01,2013-05-01 02:46:00,
2013-04-30 22:51:00,64.8,51.0,29.97,South,180,10.1,13.6,61,0.00,,CLR,0.33,VWS V14.01,2013-05-01 02:51:00,
2013-04-30 22:56:00,64.4,50.7,29.97,South,180,10.5,13.6,61,0.00,,CLR,0.33,VWS V14.01,2013-05-01 02:56:00,
2013-04-30 23:00:00,64.4,50.7,30.00,South,180,8.5,13.6,61,0.00,,CLR,0.33,VWS V14.01,2013-05-01 03:00:00,
2013-04-30 23:01:00,64.4,50.7,29.97,South,180,9.8,13.6,61,0.00,,CLR,0.33,VWS V14.01,2013-05-01 03:01:00,
2013-04-30 23:06:00,64.2,50.9,30.00,SSE,158,9.2,11.9,62,0.00,,CLR,0.33,VWS V14.01,2013-05-01 03:06:00,
2013-04-30 23:11:00,64.2,50.9,30.00,South,180,8.7,12.3,62,0.00,,CLR,0.33,VWS V14.01,2013-05-01 03:11:00,
2013-04-30 23:16:00,64.2,50.9,30.00,South,180,8.5,12.3,62,0.00,,CLR,0.33,VWS V14.01,2013-05-01 03:16:00,
2013-04-30 23:21:00,64.0,50.8,30.00,SSE,158,6.9,12.3,62,0.00,,CLR,0.33,VWS V14.01,2013-05-01 03:21:00,
2013-04-30 23:26:00,63.9,51.0,30.00,SSE,158,7.2,12.3,63,0.00,,CLR,0.33,VWS V14.01,2013-05-01 03:26:00,
2013-04-30 23:31:00,63.7,50.9,30.00,SSE,158,6.5,12.3,63,0.00,,CLR,0.33,VWS V14.01,2013-05-01 03:31:00,
2013-04-30 23:36:00,63.7,50.9,30.00,South,180,5.6,12.3,63,0.00,,CLR,0.33,VWS V14.01,2013-05-01 03:36:00,
2013-04-30 23:42:00,63.3,50.5,30.00,SSE,158,5.4,12.3,63,0.00,,CLR,0.33,VWS V14.01,2013-05-01 03:42:00,
2013-04-30 23:47:00,63.3,50.5,30.00,South,180,5.8,12.3,63,0.00,,CLR,0.33,VWS V14.01,2013-05-01 03:47:00,
2013-04-30 23:52:00,63.1,50.8,30.00,SSE,158,7.6,12.3,64,0.00,,CLR,0.33,VWS V14.01,2013-05-01 03:52:00,
2013-04-30 23:57:00,63.0,50.6,30.00,South,180,7.6,12.3,64,0.00,,CLR,0.33,VWS V14.01,2013-05-01 03:57:00,